Regional Weather Roundup
Issued by NWS Grand Forks, ND

Home | Current Version | Previous Version | Graphics & Text | Print | Product List | Glossary On
Versions: 1 2 3 4 5 6 7 8 9 10 11 12 13 14 15 16 17 18 19 20 21 22 23 24 25 26 27 28 29 30 31 32 33 34 35 36 37 38 39 40 41 42 43 44 45 46 47 48 49 50
889
ASUS43 KFGF 202331
RWRFGF
PRAIRIE TO PINES  WEATHER ROUNDUP
NATIONAL WEATHER SERVICE EASTERN NORTH DAKOTA/GRAND FORKS ND
500 PM CST SAT JAN 20 2018

 **SATELLITE DATA USED TO AUGMENT SKY COVER AT AUTOMATED STATIONS**
 *****  WEATHER ACROSS EASTERN NORTH DAKOTA  *****

CITY           SKY/WX    TMP DP  RH WIND       PRES   REMARKS
GRAND FORKS    FAIR      34  29  82 W7        29.84R
GRAND FRKS AFB FAIR      34  27  75 NW7       29.83R
DEVILS LAKE    FAIR      30  25  81 SW8       29.84R WCI  22
FARGO          FAIR      37  30  75 SW7       29.87R
WAHPETON ARPT  FAIR      36  30  80 W3        29.90R
$$

 ***** WEATHER ACROSS CENTRAL AND WESTERN NORTH DAKOTA  *****

CITY           SKY/WX    TMP DP  RH WIND       PRES   REMARKS
BISMARCK       FAIR      38  27  64 W9        29.89R
MINOT          FAIR      35  24  64 SW15      29.83R
JAMESTOWN      FAIR      37  29  72 W8        29.85R
MINOT AFB      FAIR      34  26  72 W13       29.81R WCI  25
GARRISON         N/A     32  25  75 W8        29.86R WCI  25
WILLISTON      FAIR      31  21  66 W8        29.87R WCI  23
DICKINSON      FAIR      33  23  66 W12       29.86S WCI  24
HETTINGER      FAIR      33  25  72 NW13      29.90S WCI  24
$$

 *****  OTHER AIRPORT OBSERVATIONS IN OUR AREA  *****

CITY           SKY/WX    TMP DP  RH WIND       PRES   REMARKS
WALHALLA       FAIR      34  28  80 CALM      29.81R
GRAFTON AIRPOR FAIR      32  28  86 W13       29.85S WCI  22
VALLEY CITY AR FAIR      34  34 100 W13       29.88R WCI  25
CANDO          FAIR      25  25 100 SW8       29.85R WCI  16
CAVALIER APRT    N/A     34  27  75 SW5       29.81R
GWINNER          N/A     36  28  75 W9        29.88R
ROLLA          FAIR      28  25  86 SW8       29.82R WCI  20
 ***** THE ABOVE OBSERVATIONS ARE NON NWS ARE NOT QUALITY
       CONTROLLED AND MAY MIS-REPORT RAIN FOR SNOW...
$$

  *****  WEATHER ACROSS NORTHERN MINNESOTA  *****

CITY           SKY/WX    TMP DP  RH WIND       PRES   REMARKS
FLAG ISLAND    FAIR      23  21  93 S6        29.80R WCI  16
WARROAD        FAIR      32  27  80 SW7       29.83R
ROSEAU         FAIR      30  25  80 SW6       29.83R WCI  24
HALLOCK        FAIR      25  23  93 SE10      29.82R WCI  15
THF RVR FALLS  FAIR      27  23  85 SW9       29.85R WCI  18
BAUDETTE       FAIR      34  26  72 SW5       29.79R
WASKISH        FAIR      30  25  80 SW3       29.84R
CROOKSTON      FAIR      27  25  93 SW8       29.88R WCI  18
STEPHEN NDAWN    N/A     28  27  93 S3          N/A
GREENBUSH NDAW   N/A     25  21  86 S6          N/A  WCI  18
$$
  *****  WEATHER ACROSS CENTRAL AND WEST MINNESOTA  *****

CITY           SKY/WX    TMP DP  RH WIND       PRES   REMARKS
FOSSTON        FAIR      27  21  80 SW6       29.87R WCI  20
BEMIDJI        FAIR      31  24  76 SW5       29.85R
PARK RAPIDS    FAIR      28  22  78 W3        29.84R
ELBOW LAKE     FAIR      36  31  82 CALM      29.90R
WADENA         FAIR      36  27  69 W3        29.87R
DETROIT LAKES  FAIR      34  30  86 SW3       29.88R
MOORHEAD       FAIR      36  30  80 SW6       29.90R
FERGUS FALLS   FAIR      36  30  80 CALM      29.88R
MORRIS MN      FAIR      39  30  70 N5        29.89S
STAPLES        FAIR      34  27  75 CALM      29.88R
$$
  *****  WEATHER ELSEWHERE ACROSS MINNESOTA  *****

CITY           SKY/WX    TMP DP  RH WIND       PRES   REMARKS
DULUTH         FAIR      36  28  73 W6        29.83R
INTRNTL FALLS  FAIR      29  23  78 CALM      29.80R
ELY            FAIR      34  27  75 CALM      29.82R
CLOQUET        MOCLDY    39  27  60 W5        29.85R
WHEATON        FAIR      39  28  65 W3        29.92R
BRAINERD       FAIR      38  26  62 W7        29.87R
HIBBING        FAIR      29  26  89 CALM      29.83R
ALEXANDRIA     FAIR      37  30  75 W6        29.89R
SAINT CLOUD    MOCLDY    36  30  79 SW6       29.89R
MINNEAPOLIS    CLOUDY    41  32  70 SW3       29.90R
$$

  *****  WEATHER ACROSS SOUTH DAKOTA  *****

CITY           SKY/WX    TMP DP  RH WIND       PRES   REMARKS
SIOUX FALLS    MOCLDY    39  34  82 N5        29.89S
BROOKINGS      FAIR      41  29  62 N5        29.90R
WATERTOWN      CLOUDY    39  30  70 NW6       29.88R
HURON          MOCLDY    41  33  73 SE3       29.90R
SISSETON         N/A     42  29  59 W5        29.89R
ABERDEEN       FAIR      42  30  62 NW5       29.90R
MITCHELL       FAIR      39  33  79 N5        29.91R
PIERRE         CLOUDY    38  38 100 SW3       29.91R
MOBRIDGE       FAIR      43  30  60 CALM      29.88R
RAPID CITY     LGT SNOW  34  27  75 N9        29.94R
$$

  *****  SOME WEATHER IN NEARBY STATES *****

CITY           SKY/WX    TMP DP  RH WIND       PRES   REMARKS
GLASGOW MT     FAIR      28  19  69 CALM      29.88R
GREAT FALLS MT FAIR      38  18  44 SW16      29.88R
CHEYENNE WY    FOG       28  28 100 NE12      29.78R VSB 1/4 WCI  18
SCOTTSBLUFF NE CLOUDY    35  31  85 NE9       29.86R
OMAHA NE       FAIR      44  37  76 S8        29.84R
DES MOINES IA  FAIR      44  37  76 CALM      29.87F
DAVENPORT IA   CLOUDY    43  36  76 SW7       29.94S
CHICAGO IL     FAIR      42  33  70 SW5       29.95R
EAU CLAIRE WI  FAIR      38  30  73 CALM      29.90R
LA CROSSE WI   FAIR      35  30  82 NW3       29.91R
$$

  *****  SOME NATIONAL WEATHER *****

CITY           SKY/WX    TMP DP  RH WIND       PRES   REMARKS
LA GUARDIA NY  MOCLDY    49  26  41 W13G23    29.94R
RALEIGH NC     FAIR      47  33  58 SW6       30.15R
ATLANTA GA     FAIR      58  40  51 SW6       30.21S
NEW ORLEANS LA MOCLDY    63  55  75 SE16      30.17F
OKLAHOMA CITY  FAIR      67  38  34 S21       29.77R
ALBUQUERQUE NM PTSUNNY   60  16  18 SW12      29.80F
SALT LAKE CITY CLOUDY    34  30  85 N9        29.87R
LOS ANGELES CA FAIR      62  38  40 W20       30.04S
BOISE ID       FAIR      41  27  57 NW12      30.06R
SEATTLE WA     CLOUDY    47  39  74 S12       30.03S
$$

*** WEATHER ACROSS MANITOBA...SASKATCHEWAN AND ONTARIO ***
                ***ONTARIO***

CITY           SKY/WX    TMP DP  RH WIND       PRES   REMARKS
GERALDTON      FLURRIES   9   1  72 E3        29.88R
THUNDER BAY    MOCLDY    21  18  86 E6        29.87R WCI  14
SIOUX LOOKOUT  FLURRIES  19  18  93 E5        29.80R WCI  13
TORONTO        MOCLDY    37  28  70 W8        29.95R
BIG TROUT LK   FLURRIES  -4  -8  84 N3        29.95R
PICKLE LAKE    FLURRIES   3   0  85 E3        29.85R
DRYDEN         CLOUDY    28  25  86 NW5       29.79R WCI  23
KENORA         CLOUDY    30  27  86 S6        29.78R WCI  24
$$
                *** MANITOBA***

CITY           SKY/WX    TMP DP  RH WIND       PRES   REMARKS
BRANDON        PTCLDY    25  21  86 W3        29.78R
DAUPHIN        CLOUDY    21  18  86 NE5       29.83R WCI  15
ISLAND LAKE    MOCLDY    -4  -8  84 VRB2      29.93R
PILOT MOUND      N/A     32  25  74 W3          N/A
THE PAS        FLURRIES   5  -2  72 NE5       29.91R WCI  -4
THOMPSON       FLURRIES   3   0  85 NE6       29.98R WCI  -8
WINNIPEG       PTCLDY    27  25  93 S3        29.80R
LYNN LAKE      FLURRIES   1   0  92 E5        29.93R WCI  -8
CHURCHILL      CRYSTALS -11 -15  84 NW9       30.19R WCI -29
GILLAM         FLURRIES  -2  -9  71 E6        30.07R WCI -14
$$
                ***SASKATCHEWAN***

CITY           SKY/WX    TMP DP  RH WIND       PRES   REMARKS
ESTEVAN        PTCLDY    30  23  74 SW8       29.83R WCI  23
KINDERSLEY     PTCLDY    32  21  64 NE3       29.80R
LLOYDMINSTER   CLOUDY    25  21  86 SW3       29.78R
PRINCE ALBERT  MOCLDY    19  14  79 SE5       29.85R WCI  13
REGINA         PTCLDY    30  23  74 W7        29.82R WCI  23
YORKTON        MOCLDY    30  27  86 W13       29.79R WCI  20
N. BATTLEFORD  CLOUDY    28  23  80 NW10      29.83R WCI  19
LA RONGE       FLURRIES   7   1  78 N3        29.86R
SASKATOON      MOCLDY    28  25  86 NW5       29.83R WCI  23
SWIFT CURRENT  CLEAR     32  21  64 W8        29.79R WCI  25
$$
NOTE: THESE ARE AUTOMATED STATIONS WITH LIMITED QUALITY CONTROL
      "FAIR" INDICATES FEW OR NO CLOUDS BELOW 12,000 FEET WITH NO
      SIGNIFICANT WEATHER AND/OR OBSTRUCTIONS TO VISIBILITY.
      SKY/WX - SKY CONDITION AND SIGNIFICANT WEATHER.
      TMP - AIR TEMPERATURE.    DP   - DEWPOINT TEMPERATURE.
      RH  - RELATIVE HUMIDITY.  PRES - PRESSURE.
      HX  - HEAT INDEX.         WCI  - WIND CHILL INDEX.
$




USA.gov is the U.S. government's official web portal to all federal, state and local government web resources and services.